Location: Anna District 4 Election Precinct
(37.4833°N, 89.2195°W)
Time: 01:14:45
(UTC+00:00)

NOAA 12 - Pass Details

Date: 07 March 2021
Orbit: 795 x 815 km, 98.5° (Epoch: 11 April)

Event Time Altitude Azimuth Distance (km) Brightness Sun altitude
Rises 11:23:57 0° 24° (NNE) 3,344 7.7 -11.8°
Reaches altitude 10° 11:26:35 10° 35° (NE) 2,405 7.1 -11.3°
Maximum altitude 11:31:14 30° 96° (E) 1,406 6.3 -10.4°
Drops below altitude 10° 11:35:50 10° 157° (SSE) 2,381 6.8 -9.4°
Sets 11:38:25 0° 168° (SSE) 3,304 7.4 -8.9°
